Location: *
(58.7167°N, 26.1833°E)
Time: 04:55:58
(UTC+00:00)

Cosmos 1605 Rocket - Pass Details

Date: 25 August 2019
Orbit: 945 x 1005 km, 82.9° (Epoch: 13 October)

Event Time Altitude Azimuth Distance (km) Brightness Sun altitude
Rises 22:43:49 0° 346° (NNW) 3,715 8.3 -20.5°
Reaches altitude 10° 22:46:20 10° 347° (NNW) 2,770 7.4 -20.4°
Maximum altitude 22:52:44 89° 259° (W) 1,010 4.0 -20.3°
Enters shadow 22:55:48 34° 171° (S) 1,603 4.6 -20.2°
